{"data":{"norad_id":44451,"epoch":"2026-09-20T01:24:23.561856Z","epoch_age_seconds":99728,"freshness":"FRESH","line1":"1 44451U 19045C   26263.05860604  .00001693  00000+0  12524-3 0  9990","line2":"2 44451  34.9927 111.0914 0000559 271.0839  88.9805 15.03059501390830","mean_motion":15.03059501,"eccentricity":5.59e-5,"inclination_deg":34.9927,"raan_deg":111.0914,"arg_perigee_deg":271.0839,"mean_anomaly_deg":88.9805,"bstar":0.00012524,"rev_number":39083,"period_min":95.804590506361,"perigee_km":557.08096283356,"apogee_km":557.8563635467,"semimajor_km":6935.6056631901,"source":"CELESTRAK","updated_at":"2026-09-20T09:00:14.528167Z"}}